TimeCDT,TemperatureF,Dew PointF,Humidity,Sea Level PressureIn,VisibilityMPH,Wind Direction,Wind SpeedMPH,Gust SpeedMPH,PrecipitationIn,Events,Conditions,WindDirDegrees,DateUTC
12:51 AM,79.0,66.0,64,29.74,10.0,South,13.8,23.0,N/A,,Overcast,170,2013-05-20 05:51:00
1:51 AM,78.1,66.9,68,29.72,9.0,South,13.8,20.7,N/A,,Mostly Cloudy,170,2013-05-20 06:51:00
2:51 AM,78.1,66.9,68,29.73,10.0,SSW,15.0,19.6,N/A,,Overcast,200,2013-05-20 07:51:00
3:48 AM,69.8,57.2,64,29.87,8.0,WNW,27.6,44.9,0.00,Rain,Light Rain,290,2013-05-20 08:48:00
3:51 AM,68.0,57.9,70,29.86,1.5,WNW,32.2,43.7,0.00,Rain-Thunderstorm,Thunderstorms and Rain,290,2013-05-20 08:51:00
3:57 AM,64.4,60.8,88,29.90,3.0,WNW,16.1,39.1,0.06,Rain-Thunderstorm,Heavy Thunderstorms and Rain,300,2013-05-20 08:57:00
4:04 AM,64.4,60.8,88,29.89,6.0,WNW,12.7,24.2,0.10,Rain-Thunderstorm,Light Thunderstorms and Rain,300,2013-05-20 09:04:00
4:16 AM,64.4,60.8,88,29.89,9.0,NW,6.9,17.3,0.10,Rain,Light Rain,310,2013-05-20 09:16:00
4:51 AM,64.9,60.1,84,29.85,10.0,Calm,Calm,-,0.10,Rain,Light Rain,0,2013-05-20 09:51:00
5:51 AM,64.0,61.0,90,29.81,10.0,ESE,10.4,-,0.00,,Overcast,120,2013-05-20 10:51:00
6:40 AM,64.4,60.8,88,29.89,7.0,South,6.9,-,0.00,Rain-Thunderstorm,Light Thunderstorms and Rain,170,2013-05-20 11:40:00
6:51 AM,64.9,62.1,90,29.87,7.0,SW,8.1,-,0.01,Rain-Thunderstorm,Light Thunderstorms and Rain,220,2013-05-20 11:51:00
7:18 AM,64.4,60.8,88,29.88,8.0,SE,10.4,-,0.01,Rain,Light Rain,140,2013-05-20 12:18:00
7:51 AM,64.9,61.0,87,29.86,10.0,SSE,9.2,-,0.02,,Mostly Cloudy,160,2013-05-20 12:51:00
8:51 AM,66.9,62.1,84,29.86,10.0,SE,12.7,-,N/A,,Overcast,140,2013-05-20 13:51:00
9:51 AM,69.1,64.0,84,29.85,10.0,SSE,10.4,-,0.08,Rain,Light Rain,150,2013-05-20 14:51:00
10:51 AM,73.9,63.0,68,29.81,10.0,SSE,17.3,-,0.00,,Scattered Clouds,150,2013-05-20 15:51:00
11:51 AM,79.0,61.0,54,29.82,10.0,SSE,15.0,19.6,N/A,,Scattered Clouds,160,2013-05-20 16:51:00
12:51 PM,80.6,64.4,58,29.86,10.0,South,11.5,20.7,N/A,,Mostly Cloudy,180,2013-05-20 17:51:00
1:51 PM,82.0,66.9,60,29.82,10.0,South,15.0,24.2,N/A,,Mostly Cloudy,180,2013-05-20 18:51:00
2:51 PM,80.1,66.0,62,29.81,10.0,SSW,15.0,25.3,N/A,,Mostly Cloudy,210,2013-05-20 19:51:00
3:51 PM,80.6,66.2,61,29.82,10.0,South,11.5,-,N/A,,Overcast,180,2013-05-20 20:51:00
4:51 PM,78.8,66.2,65,29.80,10.0,SSE,17.3,20.7,N/A,,Overcast,160,2013-05-20 21:51:00
5:51 PM,78.1,68.0,71,29.75,7.0,SSE,10.4,-,0.00,,Overcast,160,2013-05-20 22:51:00
6:51 PM,78.1,68.0,71,29.72,7.0,SSE,12.7,-,N/A,,Overcast,160,2013-05-20 23:51:00
7:41 PM,78.8,68.0,69,29.73,7.0,SSE,10.4,-,N/A,Thunderstorm,Thunderstorm,160,2013-05-21 00:41:00
7:51 PM,79.0,68.0,69,29.72,7.0,SSE,9.2,-,N/A,Thunderstorm,Thunderstorm,160,2013-05-21 00:51:00
8:51 PM,79.0,68.0,69,29.67,8.0,SE,10.4,-,0.00,Thunderstorm,Thunderstorm,140,2013-05-21 01:51:00
9:51 PM,69.1,64.0,84,29.78,5.0,NNW,27.6,46.0,0.09,Rain-Thunderstorm,Light Thunderstorms and Rain,330,2013-05-21 02:51:00
10:00 PM,66.2,62.6,88,29.83,2.0,WNW,24.2,38.0,0.01,Rain-Thunderstorm,Thunderstorms and Rain,300,2013-05-21 03:00:00
10:05 PM,64.4,62.6,94,29.86,1.0,WNW,32.2,48.3,0.12,Rain-Thunderstorm,Heavy Thunderstorms and Rain,290,2013-05-21 03:05:00
10:28 PM,64.4,62.6,94,29.86,4.0,WSW,11.5,23.0,0.61,Rain-Thunderstorm,Light Thunderstorms and Rain,250,2013-05-21 03:28:00
10:42 PM,64.4,60.8,88,29.85,5.0,SW,4.6,-,0.67,Rain-Thunderstorm,Light Thunderstorms and Rain,230,2013-05-21 03:42:00
10:51 PM,64.0,61.0,90,29.83,4.0,WSW,5.8,-,0.71,Rain-Thunderstorm,Light Thunderstorms and Rain,250,2013-05-21 03:51:00
11:37 PM,64.4,62.6,94,29.86,4.0,South,9.2,-,0.13,Rain-Thunderstorm,Light Thunderstorms and Rain,180,2013-05-21 04:37:00
11:51 PM,64.9,62.1,90,29.82,5.0,SSE,11.5,-,0.18,Rain-Thunderstorm,Light Thunderstorms and Rain,160,2013-05-21 04:51:00